Regional Weather Roundup
Issued by NWS

Home | Current Version | Previous Version | Text Only | Print | Product List | Glossary Off
Versions: 1 2 3 4 5 6 7 8 9 10 11 12 13 14 15 16 17 18 19 20 21 22 23 24 25 26 27 28 29 30 31 32 33 34 35 36 37 38 39 40 41 42 43 44 45 46 47 48 49 50

000
ASUS43 KLMK 292010
RWRKY
KENTUCKY REGIONAL WEATHER ROUNDUP
NATIONAL WEATHER SERVICE LOUISVILLE KY
400 PM EDT FRI AUG 29 2014

NOTE "FAIR" INDICATES FEW OR NO CLOUDS BELOW 12,000 FEET
WITH NO SIGNIFICANT WEATHER AND/OR OBSTRUCTIONS TO VISIBILITY.

KYZ001>023-026-027-061>063-070>075-292100-
WESTERN AND SOUTH CENTRAL KENTUCKY

CITY           SKY/WX    TMP DP  RH WIND       PRES   REMARKS
PADUCAH        MOSUNNY   93  67  42 VRB6      29.93F HX  96
HENDERSON      PTSUNNY   91  66  43 S7        29.94F HX  94
OWENSBORO      MOSUNNY   91  84  79 MISG        N/A  HX 118
HOPKINSVILLE   PTSUNNY   90  65  42 S12       29.98F HAZE    HX  91
BOWLING GREEN  MOSUNNY   89  60  37 S10       30.00F
GLASGOW        SUNNY     90  59  35 SW6       30.02F
$$

KYZ024-025-028>034-038-045-046-053-292100-
NORTH CENTRAL KENTUCKY

CITY           SKY/WX    TMP DP  RH WIND       PRES   REMARKS
LOUISVILLE/SDF MOSUNNY   92  65  40 S12G20    29.98F HX  94
LOUISVILLE/LOU MOSUNNY   89  67  47 SW3       29.99F HX  92
FORT KNOX      SUNNY     90  66  45 S10       29.99F HX  92
$$

KYZ035>037-039>044-047>052-055>060-089>105-292100-
NORTHEAST KENTUCKY

CITY           SKY/WX    TMP DP  RH WIND       PRES   REMARKS
LEXINGTON      MOSUNNY   90  70  51 W8        30.03F HX  95
COVINGTON      MOSUNNY   87  67  51 SE6       30.02F HX  90
FRANKFORT      MOSUNNY   88  70  55 S8        30.01F HX  93
$$

KYZ054-064>069-076>088-106>120-292100-
SOUTHEAST KENTUCKY

CITY           SKY/WX    TMP DP  RH WIND       PRES   REMARKS
JACKSON        MOSUNNY   88  71  57 CALM      30.07F HX  94
LONDON         LGT RAIN  85  71  63 SW6       30.07F HX  90
SOMERSET       CLOUDY    88  63  42 W10       30.05F
MIDDLESBORO    SUNNY     91  64  41 S7        30.07S HX  92
MONTICELLO     PTCLDY    91  68  46 SW8       30.06F HX  95
$$



USA.gov is the U.S. government's official web portal to all federal, state and local government web resources and services.